Theta_e
332 332 331 331 332 332 331 332 332 334 336 336 335 333 333 332 333 335 336 337 338 337 337 338 338 338 339 339 339 341 341 341 343 345 344 344 344 345 346 345 346 345
331 331 331 330 331 331 331 331 330 331 333 334 334 333 333 332 333 334 336 337 338 337 337 338 337 337 338 339 338 340 341 340 343 344 343 341 341 343 345 345 346 346
329 330 330 330 330 330 330 330 331 331 331 331 332 334 333 332 332 333 335 336 337 338 337 337 338 338 338 339 339 339 340 339 341 344 343 341 340 341 343 345 347 347
329 329 329 329 329 329 329 329 329 331 332 330 330 331 333 332 331 332 333 333 334 336 338 337 338 338 338 339 339 339 340 339 340 342 342 341 341 341 342 344 346 347
331 328 328 329 329 329 329 328 328 329 330 330 328 328 330 330 329 329 329 328 328 330 333 335 337 337 338 338 339 339 339 339 339 340 341 340 340 340 341 342 343 343
336 332 329 328 329 329 329 328 327 327 327 328 328 327 327 327 327 327 327 326 326 326 327 329 332 334 336 337 337 337 337 338 338 340 340 339 338 339 339 340 340 340
341 338 333 330 329 329 330 328 328 327 327 327 327 327 327 326 326 326 326 326 325 325 325 325 326 328 330 333 336 337 337 337 338 339 339 339 338 338 337 338 339 339
346 343 339 335 331 329 330 330 329 328 327 327 327 327 326 327 326 326 326 326 326 326 325 325 325 325 326 328 331 334 335 336 338 338 338 338 339 338 336 336 337 338
348 346 344 340 336 331 329 329 330 329 329 329 328 327 327 326 326 326 326 326 326 326 326 325 326 325 325 325 326 328 330 332 334 336 337 338 337 337 337 337 337 336
350 349 347 345 341 335 331 328 328 328 331 332 330 328 328 327 326 325 326 326 325 326 326 325 325 325 325 325 325 325 327 328 330 331 334 336 336 336 336 337 337 336
350 350 349 348 345 340 335 330 327 327 330 333 332 330 329 327 326 326 325 325 325 324 324 324 324 324 324 325 324 325 326 326 328 328 330 332 334 335 335 336 337 336
351 351 350 350 349 346 340 334 330 328 328 330 331 331 330 328 327 326 325 325 324 324 324 324 324 324 324 324 324 324 324 326 328 329 329 330 331 333 334 334 336 336
351 351 351 352 351 350 346 342 337 333 330 329 329 329 329 328 327 327 326 326 325 325 325 325 325 325 325 325 324 324 324 324 326 328 330 330 330 331 332 333 333 334
352 352 353 353 352 351 350 347 344 340 337 334 332 331 330 330 329 329 328 328 328 328 327 327 327 327 328 328 327 325 324 324 325 326 328 329 330 331 331 332 332 333
353 353 353 353 353 352 352 352 349 347 344 342 339 336 335 335 334 334 333 333 332 332 332 331 331 330 329 330 329 327 326 324 324 325 326 327 329 330 331 332 332 333
353 353 353 353 353 353 353 353 353 351 350 348 345 342 341 339 339 338 337 337 336 336 335 334 334 333 333 332 331 330 327 326 325 325 326 327 328 329 329 330 331 332
353 354 354 354 354 354 354 354 353 353 353 352 350 348 346 344 342 341 340 340 339 338 338 337 337 335 335 333 332 331 329 328 327 326 326 327 328 329 329 329 329 330
355 354 354 355 354 354 354 354 354 354 354 354 353 352 351 349 347 346 344 342 341 340 340 339 338 337 336 335 334 332 331 329 328 328 328 329 330 331 330 329 329 329
355 355 355 355 355 355 354 354 354 355 355 355 354 354 354 353 352 350 348 346 344 342 341 340 340 338 337 336 334 332 331 331 331 331 331 331 332 333 332 331 330 330
355 355 355 355 355 355 355 355 355 356 356 355 355 355 356 356 355 353 351 349 345 343 342 342 340 339 337 336 333 332 332 332 334 334 334 334 334 335 334 333 332 331
356 356 356 356 356 356 356 356 356 356 357 357 357 357 357 357 356 354 352 350 347 345 344 342 340 339 338 337 334 333 333 334 335 336 337 337 337 337 336 334 332 332
357 356 356 357 356 357 357 356 357 357 357 357 357 357 358 358 358 356 354 351 348 347 346 343 340 339 338 337 336 335 335 335 336 337 338 339 339 340 338 336 334 333
358 358 357 358 357 358 358 358 358 358 358 358 357 358 359 359 359 359 356 353 350 349 347 343 340 339 339 338 337 337 338 339 339 339 339 340 341 342 342 340 338 336
359 358 359 358 359 359 359 358 359 359 359 359 358 358 359 360 359 360 359 357 354 350 347 343 341 338 339 338 338 338 339 340 341 341 342 342 342 343 344 344 342 339
358 358 358 359 359 359 359 359 359 359 359 359 359 359 360 360 360 360 360 360 358 354 350 346 342 339 338 338 337 339 341 342 344 345 344 344 344 345 346 346 345 342
356 357 357 357 358 358 358 358 358 358 358 359 359 360 360 360 360 360 360 361 360 358 355 350 345 341 339 338 338 338 341 343 346 346 345 345 345 346 347 348 347 345
Wind_Speed
35 34 33 33 33 31 30 28 26 26 26 25 24 23 22 21 20 19 19 18 17 16 15 14 14 14 14 14 13 13 14 14 12 10 10 10 10 10 10 9 10 10
37 36 35 34 33 33 32 30 28 27 26 26 24 24 23 21 21 20 20 19 18 17 15 15 15 14 15 15 14 14 15 15 13 12 11 11 10 11 10 9 9 10
40 38 37 36 35 34 33 31 29 28 27 26 25 24 24 22 21 20 20 20 19 18 16 16 15 15 15 15 15 15 15 14 13 12 12 11 11 11 11 10 10 11
41 41 40 38 36 35 34 33 31 29 28 27 26 25 25 23 21 20 20 19 19 18 17 17 16 16 16 16 16 16 16 15 13 13 13 12 12 12 12 12 12 12
41 42 42 41 39 37 37 36 33 31 29 28 26 26 26 24 22 21 20 19 18 17 17 17 18 18 17 17 18 18 17 16 15 15 15 14 13 13 13 13 14 13
41 42 42 43 42 40 39 38 35 33 31 29 27 27 26 25 23 22 21 20 19 18 17 17 18 18 18 18 19 19 19 18 17 17 17 16 14 14 14 15 15 15
40 41 42 43 44 43 41 40 38 36 34 31 30 29 28 27 26 24 23 22 21 20 19 18 18 18 18 18 19 19 19 19 19 19 19 18 17 16 16 16 16 16
39 40 41 43 44 45 44 43 41 39 37 35 34 32 31 30 29 27 26 24 24 23 22 21 21 20 19 19 19 19 19 19 19 19 20 20 20 19 17 17 17 17
39 39 40 42 44 46 46 46 45 43 41 40 37 35 34 33 31 30 29 28 27 26 26 25 24 23 22 22 22 21 21 20 20 20 20 20 21 20 19 19 19 18
40 39 40 41 43 45 47 47 47 46 45 44 41 39 37 36 34 33 32 31 31 30 29 28 27 26 25 25 24 24 23 22 22 22 21 21 21 21 20 20 20 20
40 40 40 41 42 44 46 47 48 48 48 47 45 43 41 39 38 36 36 35 34 33 32 31 29 28 28 27 26 26 25 25 24 24 24 23 22 22 21 21 21 21
42 40 40 40 40 42 44 45 47 48 49 49 48 46 44 42 41 40 39 38 36 35 34 33 31 30 30 29 28 28 27 26 25 25 25 25 24 24 23 22 22 22
44 42 40 39 38 39 41 43 45 47 48 49 49 48 47 46 44 43 41 40 39 37 36 35 34 32 32 31 30 30 29 28 27 26 25 26 26 25 25 24 23 23
44 42 40 39 38 37 38 40 42 44 46 47 48 49 48 47 46 44 42 41 40 39 38 37 36 36 35 34 32 31 31 30 29 27 26 25 26 26 26 26 25 24
45 43 42 40 39 38 38 38 39 41 43 45 46 48 48 47 46 44 43 42 40 39 38 38 38 38 37 35 34 33 32 31 30 29 27 26 26 26 27 27 26 25
46 45 43 42 41 40 39 39 38 38 40 42 43 45 46 46 46 45 44 43 41 39 38 38 38 38 37 36 35 34 33 32 31 30 28 27 26 26 27 27 27 26
47 46 45 43 42 41 40 39 39 38 39 39 40 42 43 44 45 45 45 43 42 40 39 38 37 37 36 35 35 34 33 32 32 31 29 28 27 27 26 26 27 27
47 47 46 44 43 42 40 39 39 39 39 39 39 39 41 42 43 45 44 43 42 41 39 38 36 35 35 35 34 34 33 33 32 31 31 29 28 27 27 26 26 26
47 47 46 45 44 42 41 40 40 40 39 39 38 38 39 40 42 43 43 43 42 41 39 37 36 34 34 34 34 33 33 33 33 32 32 31 29 28 28 27 26 26
47 47 46 46 44 43 42 42 41 40 39 38 37 37 37 39 40 41 42 42 42 41 39 37 36 34 33 33 33 33 33 33 33 33 32 31 30 30 29 28 27 27
47 47 47 46 45 44 43 43 42 41 40 38 37 36 35 36 37 39 41 42 41 40 39 38 36 33 32 32 32 32 32 33 33 33 33 32 31 30 30 29 28 28
46 46 47 46 45 45 44 43 43 42 40 39 37 36 35 34 34 35 38 40 40 40 40 39 36 33 33 32 32 31 32 33 33 33 33 33 32 31 31 30 30 30
46 46 47 46 46 46 46 45 44 42 41 40 39 38 36 35 33 33 34 36 39 40 40 38 36 34 33 33 32 32 33 34 34 34 33 33 32 31 31 31 31 31
44 45 46 46 46 46 46 45 44 43 42 41 40 40 38 36 34 32 32 33 35 37 38 37 36 34 33 33 32 32 33 33 34 34 34 33 32 31 30 31 31 31
42 44 45 46 46 47 46 45 44 44 43 42 41 41 39 37 36 35 34 33 33 34 36 37 36 34 33 33 32 32 33 33 33 34 34 34 33 31 31 31 31 31
39 42 44 46 46 46 46 45 45 44 43 42 42 41 40 39 37 37 37 36 34 34 34 36 36 35 34 33 33 32 32 33 33 35 34 33 33 32 32 32 31 30
Wind_Direction
219 218 218 220 221 221 223 223 220 218 218 218 218 218 219 219 218 219 220 221 222 222 221 221 221 222 226 233 237 234 230 228 225 224 230 239 245 246 248 243 234 232
219 219 219 221 221 221 222 223 222 221 220 220 221 222 222 220 218 220 221 221 221 221 221 223 225 225 228 233 238 239 238 235 232 231 233 238 242 244 245 243 238 231
220 219 220 221 221 221 222 223 224 224 223 223 222 223 223 221 219 220 221 221 222 222 222 224 228 229 231 235 240 243 244 242 237 234 238 242 243 244 244 242 240 235
221 220 220 222 222 222 223 224 224 224 225 225 224 224 223 222 222 221 220 222 222 223 224 226 228 231 232 236 242 247 249 249 244 239 240 243 244 247 245 244 244 241
224 223 222 222 223 223 224 226 227 226 225 225 225 224 224 224 224 223 222 224 224 225 226 227 229 231 233 236 241 246 250 252 250 247 246 244 242 246 247 248 249 245
227 227 225 224 224 224 225 227 229 229 228 227 226 226 227 228 229 228 229 230 231 232 231 232 233 233 234 235 238 243 248 251 253 253 254 252 248 246 247 250 251 249
229 230 229 228 226 226 227 229 230 231 231 231 229 229 230 232 234 235 235 236 238 239 240 240 240 240 239 237 238 240 244 247 251 253 256 258 256 252 250 250 252 252
230 230 231 231 230 228 228 229 231 233 234 234 233 233 233 235 238 239 239 241 243 244 246 246 246 247 246 245 243 242 242 244 247 250 253 257 258 257 254 252 253 252
232 231 231 232 233 231 230 230 231 234 235 236 237 237 237 238 240 242 243 245 246 248 249 249 249 250 251 251 251 249 248 247 247 249 252 254 257 259 258 256 255 254
233 233 233 232 233 234 233 232 232 234 235 237 239 240 240 241 243 245 246 248 249 251 252 252 252 252 253 254 254 255 254 253 251 251 251 254 257 259 259 259 258 258
233 234 235 234 234 234 234 235 234 234 235 237 239 240 241 243 244 246 248 249 251 252 253 254 255 254 255 255 255 257 257 256 255 254 253 254 256 258 260 260 260 261
233 234 235 236 236 235 235 235 236 236 236 237 238 240 241 243 244 246 248 250 252 253 254 255 256 256 257 257 257 257 258 259 258 257 256 255 255 256 259 260 261 261
233 235 236 237 238 238 236 236 237 238 239 239 240 240 241 243 244 246 248 250 251 253 254 255 256 257 258 258 258 257 258 259 260 260 259 258 257 257 257 259 260 260
235 236 237 238 239 240 239 238 238 239 240 241 242 242 243 244 245 247 248 249 251 252 253 255 256 257 257 257 258 258 258 259 260 262 262 261 260 259 259 259 259 258
236 237 238 240 240 241 241 241 240 240 241 242 243 244 245 245 246 247 248 249 250 252 253 254 256 256 256 256 256 256 257 258 260 262 263 264 263 261 260 259 258 257
236 237 238 239 240 242 243 243 243 243 243 244 245 246 247 247 247 248 249 250 251 252 253 254 255 256 256 255 254 255 256 257 259 261 263 265 264 264 262 259 258 258
236 237 238 239 241 242 244 244 245 245 245 246 246 247 248 249 249 250 250 251 252 253 254 255 255 256 256 256 254 253 254 255 257 260 262 263 264 264 263 261 260 259
236 237 238 240 242 243 244 245 245 245 246 246 246 248 249 249 250 251 251 251 252 253 254 256 256 257 258 258 256 254 254 255 256 259 261 262 263 263 263 263 261 260
236 237 239 241 243 244 245 245 245 246 246 247 248 249 249 250 251 251 251 252 252 253 254 256 257 259 259 259 258 256 255 255 256 258 260 261 262 263 263 263 262 262
237 238 240 242 243 245 245 245 246 246 247 248 249 249 249 251 251 251 251 252 252 253 254 256 257 258 259 259 258 257 256 256 257 258 260 261 262 262 262 262 261 261
238 239 240 242 244 244 245 246 246 247 248 248 249 249 250 252 252 252 251 252 252 253 254 256 256 257 258 258 258 257 257 258 258 258 259 260 261 262 262 260 259 259
238 240 241 242 243 243 244 245 246 247 248 249 249 250 251 253 253 253 252 252 252 253 254 255 255 255 255 256 256 257 258 258 259 258 258 259 260 261 261 259 257 257
240 240 242 243 243 243 244 245 246 247 249 249 249 249 249 251 252 253 253 253 252 252 253 254 254 253 253 254 255 256 257 258 258 258 259 259 259 261 261 260 259 258
242 242 243 243 243 244 245 246 246 247 249 249 249 249 250 251 252 253 254 254 253 252 252 253 254 253 253 253 254 255 256 258 259 259 259 259 259 260 261 261 261 260
243 243 244 244 244 246 246 247 248 249 250 250 250 250 251 252 252 252 252 254 254 254 253 253 254 253 252 252 252 254 255 257 258 259 259 258 257 257 259 261 262 263
244 244 245 245 246 248 248 249 249 250 251 251 251 251 251 251 251 251 251 252 254 255 255 254 254 253 252 251 251 252 253 255 257 258 258 257 257 256 257 259 261 262